524  
ASUS43 KFSD 130010  
RWRFSD  
 
WEATHER ROUNDUP FOR SE SOUTH DAKOTA/SW MINNESOTA/NW IOWA  
NATIONAL WEATHER SERVICE SIOUX FALLS SD  
700 PM CDT WED AUG 12 2020  
 
NOTE: "FAIR" INDICATES FEW OR NO CLOUDS BELOW 12,000 FEET WITH NO  
SIGNIFICANT WEATHER AND OR S TO VISIBILITY
.  
 
 
SDZ038>040-050-052>070-130100-  
SOUTHEAST SOUTH DAKOTA  
 
CITY SKY/WX TMP DP RH WIND PRES REMARKS
 
BROOKINGS MOSUNNY 84 72 67 S9 29.88S  
CHAMBERLAIN SUNNY 82 72 72 SE8 29.81S  
6HR MIN TEMP: 80; 6HR MAX TEMP: 87;  
 
HURON SUNNY 86 72 62 S13 29.81S  
6HR MIN TEMP: 84; 6HR MAX TEMP: 88;  
 
MADISON FAIR 81 73 78 S12G17 29.88F  
MITCHELL SUNNY 87 69 54 S12 29.82F  
6HR MIN TEMP: 85; 6HR MAX TEMP: 89;  
 
SIOUX FALLS MOSUNNY 84 72 67 S20G25 29.88S  
6HR MIN TEMP: 84; 6HR MAX TEMP: 89;  
 
WINNER FAIR 84 65 52 SE14 29.81F  
YANKTON MOSUNNY 86 71 60 SE16 29.87F  

 
 
MNZ071-072-080-081-089-090-097-098-130100-  
SOUTHWEST MINNESOTA  
 
CITY SKY/WX TMP DP RH WIND PRES REMARKS
 
FAIRMONT SUNNY 81 73 76 S17 29.95S  
JACKSON MOSUNNY 82 70 65 S12G18 29.95S  
LUVERNE SUNNY 81 68 65 S14G20 29.91R  
MARSHALL MOSUNNY 84 73 69 S10 29.89S  
6HR MIN TEMP: 71; 6HR MAX TEMP: 86;  
 
MONTEVIDEO CLOUDY 75 70 83 SE12 29.91S  
PIPESTONE N/A 82 73 74 S15 29.91R  
REDWOOD FALLS SUNNY 79 71 76 SE12 29.91S  
TRACY SUNNY 84 70 61 S8 29.90S  
WINDOM SUNNY 81 73 78 SE8 29.92S  
WORTHINGTON SUNNY 82 71 69 S14 29.93S  

 
 
IAZ001>003-012>014-020>022-031-032-NEZ013-014-SDZ071-130100-  
NORTHWEST IOWA  
 
CITY SKY/WX TMP DP RH WIND PRES REMARKS
 
CHEROKEE MOSUNNY 83 74 72 S12 29.94S  
DENISON PTSUNNY 81 77 89 S5 29.97S  
ESTHERVILLE MOSUNNY 80 73 79 S13G23 29.94S  
LE MARS N/A N/A N/A N/A MISG N/A  
MAURICE FAIR 82 77 83 S18 29.90S  
SHELDON SUNNY 82 73 74 S16G24 29.91S  
SIOUX CITY SUNNY 82 71 69 S12 29.92F  
6HR MIN TEMP: 82; 6HR MAX TEMP: 86;  
 
SPENCER SUNNY 86 71 60 S13G23 29.94S  
6HR MIN TEMP: 86; 6HR MAX TEMP: 91;  
 
STORM LAKE MOSUNNY 81 72 74 S10 29.94S  

 
 
ABBREVIATIONS USED IN REMARKS  
TC - TEMPERATURE IN CELSIUS  
WCI - WIND CHILL INDEX  
HX - HEAT INDEX  
VSB - VISIBILITY  
 
 
 
CLICK HERE TO GO TO PREVIOUS BULLETINS.

The Nexlab SD Page
The Nexlab IA Page
The Nexlab MN Page
The Nexlab NE Page Main Text Page